N164RJ LSZS-KASE

Flight info

Callsign N164RJ
Flight time N/A
Altitude 32000
Route RONAG DCT NATOR DCT PITES DCT DENUT L610 GILDA M14 STOAT L613 MOGLI UP6 RODOL UL28 AGLIL M146 LUSOD DCT TADEX/N0452F340 DCT PEVAN DCT BILTO/M079F340 DCT 57N020W 59N030W 59N040W 59N050W/M079F360 DCT URTAK/N0453F360 N892B UDMAR/N0455F380 N892B MCKEE DCT 54N075W 51N083W DCT MECNU/N0460F400 Q924 DLH J21 GEP J114 DVV DCT BULDG
Aircraft B737/M-SDE2E3FGHIRWXY/LB1

Departure

Time 2026-04-19 09:04
Airport Engadin Airport (LSZS)

Arrival

Time N/A
Airport Aspen-Pitkin County Airport (Sardy Field) (KASE)
Time Latitude Longitude Altitude Speed Heading
2026-04-19 08:28 46.53077 9.87996 5610 ft 0 kts 297°
2026-04-19 08:54 46.53078 9.87991 5607 ft 1 kts 292°
2026-04-19 08:55 46.53081 9.87978 5615 ft 1 kts 290°
2026-04-19 08:55 46.53080 9.87965 5613 ft 1 kts 250°
2026-04-19 08:55 46.53071 9.87969 5613 ft 0 kts 138°
2026-04-19 08:56 46.53068 9.87970 5612 ft 1 kts 161°
2026-04-19 08:56 46.53060 9.87968 5610 ft 1 kts 190°
2026-04-19 08:56 46.53051 9.87964 5609 ft 1 kts 198°
2026-04-19 08:57 46.53041 9.87960 5606 ft 1 kts 194°
2026-04-19 08:57 46.53033 9.87957 5607 ft 0 kts 194°
2026-04-19 08:57 46.53024 9.87954 5607 ft 3 kts 194°
2026-04-19 08:57 46.52993 9.87967 5609 ft 7 kts 129°
2026-04-19 08:58 46.52958 9.88057 5607 ft 13 kts 120°
2026-04-19 08:58 46.52892 9.88107 5609 ft 13 kts 212°
2026-04-19 08:58 46.52815 9.88044 5607 ft 13 kts 209°
2026-04-19 08:58 46.52740 9.87982 5607 ft 12 kts 214°
2026-04-19 08:59 46.52724 9.87878 5607 ft 8 kts 295°
2026-04-19 08:59 46.52743 9.87846 5606 ft 1 kts 345°
2026-04-19 08:59 46.52747 9.87849 5606 ft 1 kts 20°
2026-04-19 08:59 46.52757 9.87854 5606 ft 2 kts 20°
2026-04-19 09:00 46.52760 9.87857 5606 ft 0 kts 29°
2026-04-19 09:00 46.52950 9.88012 5607 ft 63 kts 29°
2026-04-19 09:00 46.53504 9.88461 5613 ft 119 kts 29°
2026-04-19 09:01 46.54361 9.89142 5609 ft 141 kts 24°
2026-04-19 09:01 46.54497 9.88800 5625 ft 412 kts 38°
2026-04-19 09:01 46.52742 9.87855 5607 ft 0 kts 38°
2026-04-19 09:01 46.52705 9.87812 5608 ft 0 kts 29°
2026-04-19 09:03 46.52836 9.87920 5605 ft 54 kts 30°
2026-04-19 09:03 46.53337 9.88325 5614 ft 111 kts 29°
2026-04-19 09:03 46.54173 9.89001 5619 ft 160 kts 28°
2026-04-19 09:03 46.55203 9.89829 5842 ft 179 kts 28°
2026-04-19 09:04 46.56309 9.90787 6345 ft 192 kts 37°
2026-04-19 09:04 46.57410 9.92051 6844 ft 201 kts 35°
2026-04-19 09:04 46.58505 9.93163 7685 ft 188 kts 32°
2026-04-19 09:04 46.59618 9.94225 8009 ft 196 kts 30°
2026-04-19 09:05 46.60779 9.95320 8234 ft 203 kts 30°
2026-04-19 09:05 46.61998 9.96468 8479 ft 215 kts 31°
2026-04-19 09:05 46.63154 9.97934 8594 ft 229 kts 56°
2026-04-19 09:05 46.64005 9.99972 8858 ft 242 kts 57°
2026-04-19 09:06 46.64904 10.02071 9255 ft 249 kts 56°
2026-04-19 09:06 46.65850 10.04259 9576 ft 261 kts 56°
2026-04-19 09:06 46.66876 10.06510 10026 ft 270 kts 47°
2026-04-19 09:06 46.68198 10.08409 10753 ft 265 kts 40°
2026-04-19 09:07 46.69529 10.10229 11460 ft 265 kts 41°
2026-04-19 09:07 46.70860 10.12091 12069 ft 269 kts 41°
2026-04-19 09:07 46.72241 10.14046 12462 ft 281 kts 41°
2026-04-19 09:07 46.73591 10.16162 13082 ft 285 kts 52°
2026-04-19 09:08 46.74652 10.18525 14005 ft 279 kts 54°
2026-04-19 09:08 46.75736 10.20884 14477 ft 282 kts 44°
2026-04-19 09:08 46.77311 10.22478 14878 ft 275 kts 11°
2026-04-19 09:08 46.79174 10.22713 15296 ft 272 kts 346°
2026-04-19 09:09 46.80969 10.21731 15459 ft 282 kts 323°
2026-04-19 09:09 46.82550 10.19900 15615 ft 300 kts 317°
2026-04-19 09:09 46.84118 10.17811 15752 ft 317 kts 315°
2026-04-19 09:09 46.85781 10.15518 15882 ft 336 kts 315°
2026-04-19 09:10 46.87498 10.13141 16009 ft 353 kts 315°
2026-04-19 09:10 46.89324 10.10624 16158 ft 370 kts 315°
2026-04-19 09:10 46.91237 10.08001 16490 ft 381 kts 315°
2026-04-19 09:10 46.93181 10.05350 17059 ft 384 kts 315°
2026-04-19 09:11 46.95149 10.02674 17666 ft 386 kts 315°
2026-04-19 09:11 46.97121 9.99999 18257 ft 389 kts 315°
2026-04-19 09:11 46.99114 9.97293 18728 ft 393 kts 315°
2026-04-19 09:11 47.01129 9.94557 19206 ft 396 kts 315°
2026-04-19 09:12 47.03124 9.91846 19667 ft 399 kts 315°
2026-04-19 09:12 47.05163 9.89074 20154 ft 401 kts 314°
2026-04-19 09:12 47.07209 9.86286 20744 ft 402 kts 314°
2026-04-19 09:12 47.09260 9.83490 21221 ft 405 kts 314°
2026-04-19 09:13 47.11336 9.80656 21631 ft 409 kts 314°
2026-04-19 09:13 47.13431 9.77794 22072 ft 412 kts 314°
2026-04-19 09:13 47.15534 9.74918 22465 ft 415 kts 314°
2026-04-19 09:13 47.17627 9.72056 23398 ft 403 kts 313°
2026-04-19 09:14 47.19658 9.69278 24155 ft 399 kts 313°
2026-04-19 09:14 47.21694 9.66485 24522 ft 402 kts 313°
2026-04-19 09:14 47.23723 9.63693 24826 ft 406 kts 313°
2026-04-19 09:14 47.25795 9.60840 25210 ft 409 kts 313°
2026-04-19 09:15 47.27869 9.57982 25617 ft 410 kts 313°
2026-04-19 09:15 47.29962 9.55096 26038 ft 411 kts 313°
2026-04-19 09:15 47.34128 9.49345 26883 ft 412 kts 313°
2026-04-19 09:16 47.36230 9.46436 27208 ft 415 kts 313°
2026-04-19 09:16 47.38331 9.43526 27545 ft 417 kts 313°
2026-04-19 09:16 47.40455 9.40581 27879 ft 419 kts 313°
2026-04-19 09:16 47.42558 9.37661 28239 ft 421 kts 313°
2026-04-19 09:17 47.44698 9.34687 28496 ft 424 kts 313°
2026-04-19 09:17 47.46853 9.31689 28799 ft 426 kts 313°
2026-04-19 09:17 47.49005 9.28692 29103 ft 427 kts 313°
2026-04-19 09:17 47.51175 9.25665 29390 ft 429 kts 313°
2026-04-19 09:18 47.53348 9.22632 29659 ft 430 kts 313°
2026-04-19 09:18 47.55520 9.19596 30168 ft 427 kts 313°
2026-04-19 09:18 47.57664 9.16600 30673 ft 421 kts 313°
2026-04-19 09:18 47.59793 9.13619 30977 ft 421 kts 313°
2026-04-19 09:19 47.61921 9.10633 31158 ft 423 kts 313°
2026-04-19 09:19 47.64059 9.07627 31398 ft 423 kts 313°
2026-04-19 09:19 47.66198 9.04618 31724 ft 423 kts 313°
2026-04-19 09:19 47.68302 9.01656 31929 ft 424 kts 313°
2026-04-19 09:20 47.70436 8.98646 32111 ft 424 kts 313°
2026-04-19 09:20 47.74712 8.92610 32106 ft 423 kts 313°
2026-04-19 09:21 47.78968 8.86585 32123 ft 422 kts 313°
2026-04-19 09:21 47.83212 8.80564 32110 ft 421 kts 313°
2026-04-19 09:22 47.87408 8.74597 32102 ft 419 kts 313°
2026-04-19 09:22 47.91624 8.68586 32114 ft 419 kts 313°
2026-04-19 09:23 47.95826 8.62581 32117 ft 419 kts 313°
2026-04-19 09:23 48.00026 8.56565 32110 ft 418 kts 313°
2026-04-19 09:24 48.04215 8.50550 32135 ft 417 kts 313°
2026-04-19 09:24 48.08365 8.44577 32128 ft 417 kts 313°
2026-04-19 09:25 48.12539 8.38555 32129 ft 416 kts 313°
2026-04-19 09:25 48.16682 8.32579 32141 ft 416 kts 314°
2026-04-19 09:26 48.21265 8.27124 32136 ft 420 kts 320°
2026-04-19 09:26 48.25956 8.22010 32154 ft 420 kts 320°
2026-04-19 09:27 48.30688 8.16818 32145 ft 421 kts 320°
2026-04-19 09:27 48.35386 8.11593 32173 ft 421 kts 319°
2026-04-19 09:28 48.40084 8.06326 32184 ft 421 kts 319°
2026-04-19 09:28 48.44779 8.01044 32176 ft 421 kts 319°
2026-04-19 09:29 48.49444 7.95784 32176 ft 421 kts 319°
2026-04-19 09:29 48.54123 7.90496 32180 ft 421 kts 319°
2026-04-19 09:30 48.58809 7.85189 32176 ft 420 kts 319°
2026-04-19 09:30 48.63474 7.79891 32195 ft 419 kts 319°
2026-04-19 09:31 48.68074 7.74543 32082 ft 417 kts 315°
2026-04-19 09:31 48.72585 7.69191 32119 ft 412 kts 320°
2026-04-19 09:32 48.77195 7.64095 32172 ft 410 kts 319°
2026-04-19 09:32 48.81821 7.58899 32182 ft 418 kts 319°
2026-04-19 09:33 48.86475 7.53586 32177 ft 419 kts 319°
2026-04-19 09:33 48.91121 7.48242 32176 ft 418 kts 319°
2026-04-19 09:34 48.95721 7.42932 32177 ft 417 kts 319°
2026-04-19 09:34 49.00329 7.37599 32177 ft 415 kts 319°
2026-04-19 09:35 49.04916 7.32279 32181 ft 414 kts 319°
2026-04-19 09:35 49.09491 7.26960 32195 ft 414 kts 319°
2026-04-19 09:36 49.14030 7.21669 32189 ft 413 kts 319°
2026-04-19 09:36 49.18589 7.16344 32185 ft 412 kts 319°
2026-04-19 09:37 49.23132 7.11024 32179 ft 412 kts 319°
2026-04-19 09:37 49.27679 7.05688 32177 ft 411 kts 319°
2026-04-19 09:38 49.32172 7.00401 32202 ft 410 kts 319°
2026-04-19 09:38 49.36706 6.95053 32192 ft 410 kts 319°
2026-04-19 09:39 49.41226 6.89710 32181 ft 410 kts 319°
2026-04-19 09:39 49.45748 6.84352 32184 ft 410 kts 318°
2026-04-19 09:40 49.50255 6.78998 32187 ft 410 kts 318°
2026-04-19 09:40 49.54727 6.73674 32178 ft 409 kts 318°
2026-04-19 09:41 49.59234 6.68293 32191 ft 410 kts 319°
2026-04-19 09:41 49.63740 6.62902 32186 ft 410 kts 318°
2026-04-19 09:42 49.68248 6.57496 32183 ft 411 kts 318°
2026-04-19 09:42 49.72697 6.52057 32185 ft 409 kts 314°
2026-04-19 09:43 49.76494 6.45591 32191 ft 406 kts 308°
2026-04-19 09:43 49.80150 6.38909 32217 ft 406 kts 308°
2026-04-19 09:44 49.83807 6.32243 32216 ft 407 kts 308°
2026-04-19 09:44 49.87459 6.25605 32196 ft 407 kts 308°
2026-04-19 09:45 49.91130 6.18928 32192 ft 407 kts 308°
2026-04-19 09:45 49.94796 6.12245 32203 ft 406 kts 308°
2026-04-19 09:46 49.98455 6.05559 32201 ft 406 kts 308°
2026-04-19 09:46 50.02107 5.98867 32198 ft 405 kts 308°
2026-04-19 09:47 50.05744 5.92187 32219 ft 405 kts 308°
2026-04-19 09:47 50.09356 5.85534 32225 ft 404 kts 308°
2026-04-19 09:48 50.12982 5.78840 32219 ft 404 kts 308°
2026-04-19 09:48 50.16605 5.72132 32217 ft 404 kts 308°
2026-04-19 09:49 50.20190 5.65478 32228 ft 403 kts 308°
2026-04-19 09:49 50.23792 5.58776 32228 ft 403 kts 308°
2026-04-19 09:50 50.27392 5.52060 32202 ft 403 kts 308°
2026-04-19 09:50 50.30980 5.45348 32233 ft 404 kts 308°
2026-04-19 09:51 50.34578 5.38602 32228 ft 404 kts 308°
2026-04-19 09:51 50.38153 5.31881 32232 ft 404 kts 308°
2026-04-19 09:52 50.41732 5.25133 32234 ft 404 kts 308°
2026-04-19 09:52 50.45203 5.18573 32237 ft 404 kts 308°
2026-04-19 09:53 50.48788 5.11782 32241 ft 404 kts 308°
2026-04-19 09:53 50.52359 5.04997 32234 ft 403 kts 308°
2026-04-19 09:54 50.55909 4.98235 32248 ft 403 kts 308°
2026-04-19 09:54 50.59472 4.91432 32248 ft 403 kts 308°
2026-04-19 09:55 50.63035 4.84609 32248 ft 403 kts 308°
2026-04-19 09:55 50.66588 4.77789 32245 ft 403 kts 308°
2026-04-19 09:56 50.70143 4.70947 32253 ft 403 kts 308°
2026-04-19 09:56 50.73614 4.64249 32231 ft 392 kts 308°
2026-04-19 09:57 50.77004 4.57693 32257 ft 387 kts 308°
2026-04-19 09:57 50.80443 4.51018 32289 ft 397 kts 308°
2026-04-19 09:58 50.83971 4.44153 32276 ft 406 kts 308°
2026-04-19 09:58 50.87535 4.37203 32273 ft 407 kts 308°
2026-04-19 09:59 50.91071 4.30291 32267 ft 406 kts 308°
2026-04-19 09:59 50.94624 4.23328 32262 ft 406 kts 308°
2026-04-19 10:00 50.98164 4.16368 32258 ft 405 kts 307°
2026-04-19 10:00 51.01695 4.09408 32260 ft 404 kts 307°
2026-04-19 10:01 51.05190 4.02500 32271 ft 403 kts 307°
2026-04-19 10:01 51.08723 3.95499 32256 ft 403 kts 307°
2026-04-19 10:02 51.12195 3.88597 32249 ft 402 kts 307°
2026-04-19 10:02 51.15692 3.81629 32253 ft 402 kts 307°
2026-04-19 10:03 51.19176 3.74672 32254 ft 402 kts 307°
2026-04-19 10:03 51.22441 3.67464 32251 ft 401 kts 298°
2026-04-19 10:04 51.24510 3.59294 32251 ft 402 kts 284°
2026-04-19 10:04 51.25630 3.50549 32264 ft 403 kts 283°
2026-04-19 10:05 51.26757 3.41776 32276 ft 403 kts 283°
2026-04-19 10:05 51.27901 3.33016 32270 ft 404 kts 284°
2026-04-19 10:06 51.29042 3.24237 32298 ft 404 kts 284°
2026-04-19 10:06 51.30168 3.15505 32298 ft 404 kts 283°
2026-04-19 10:07 51.31299 3.06686 32293 ft 405 kts 283°
2026-04-19 10:07 51.32422 2.97867 32294 ft 405 kts 283°
2026-04-19 10:08 51.33540 2.89029 32295 ft 405 kts 283°
2026-04-19 10:08 51.34650 2.80207 32292 ft 405 kts 283°
2026-04-19 10:09 51.35744 2.71427 32298 ft 405 kts 283°
2026-04-19 10:09 51.36825 2.62597 32302 ft 405 kts 283°
2026-04-19 10:10 51.37901 2.53752 32301 ft 404 kts 283°
2026-04-19 10:10 51.38968 2.44930 32302 ft 404 kts 283°
2026-04-19 10:11 51.40025 2.36150 32285 ft 404 kts 283°
2026-04-19 10:11 51.41083 2.27299 32299 ft 404 kts 283°
2026-04-19 10:12 51.42155 2.18452 32303 ft 404 kts 283°
2026-04-19 10:12 51.43236 2.09630 32302 ft 405 kts 283°
2026-04-19 10:13 51.44304 2.00815 32301 ft 405 kts 283°
2026-04-19 10:13 51.45362 1.91955 32301 ft 405 kts 283°
2026-04-19 10:14 51.46407 1.83061 32301 ft 405 kts 282°
2026-04-19 10:14 51.47423 1.74178 32303 ft 406 kts 282°
2026-04-19 10:15 51.48439 1.65272 32313 ft 406 kts 282°
2026-04-19 10:15 51.49443 1.56412 32312 ft 406 kts 282°
2026-04-19 10:16 51.50448 1.47510 32320 ft 406 kts 282°
2026-04-19 10:16 51.51447 1.38595 32310 ft 405 kts 282°
2026-04-19 10:17 51.52439 1.29688 32316 ft 406 kts 282°
2026-04-19 10:17 51.53427 1.20751 32317 ft 406 kts 282°
2026-04-19 10:18 51.54406 1.11828 32321 ft 406 kts 282°
2026-04-19 10:18 51.55386 1.02881 32320 ft 406 kts 282°
2026-04-19 10:19 51.56831 0.89520 32313 ft 406 kts 282°
2026-04-19 10:19 51.57788 0.80547 32327 ft 407 kts 282°
2026-04-19 10:20 51.58739 0.71585 32320 ft 407 kts 282°
2026-04-19 10:20 51.59525 0.64131 32321 ft 407 kts 282°
2026-04-19 10:21 51.61413 0.55694 32333 ft 402 kts 302°
2026-04-19 10:21 51.63659 0.50959 32309 ft 404 kts 316°
2026-04-19 10:21 51.65166 0.49084 32335 ft 405 kts 323°
2026-04-19 10:22 51.69742 0.43890 32326 ft 405 kts 321°
2026-04-19 10:22 51.74198 0.38358 32343 ft 405 kts 319°
2026-04-19 10:23 51.78500 0.32460 32347 ft 405 kts 317°
2026-04-19 10:23 51.82731 0.26441 32361 ft 406 kts 317°
2026-04-19 10:24 51.86967 0.20375 32350 ft 407 kts 317°
2026-04-19 10:24 51.91204 0.14302 32345 ft 406 kts 317°
2026-04-19 10:25 51.95427 0.08238 32346 ft 406 kts 317°
2026-04-19 10:25 51.99565 0.02283 32340 ft 405 kts 316°
2026-04-19 10:26 52.03973 -0.03400 32308 ft 406 kts 328°
2026-04-19 10:26 52.08960 -0.07735 32335 ft 407 kts 329°
2026-04-19 10:27 52.13968 -0.12063 32329 ft 407 kts 329°
2026-04-19 10:27 52.18918 -0.16402 32333 ft 407 kts 329°
2026-04-19 10:28 52.23906 -0.20801 32332 ft 407 kts 329°
2026-04-19 10:28 52.28873 -0.25244 32354 ft 407 kts 325°
2026-04-19 10:29 52.33194 -0.31097 32320 ft 404 kts 311°
2026-04-19 10:29 52.36898 -0.37938 32321 ft 404 kts 311°
2026-04-19 10:30 52.40603 -0.44817 32319 ft 404 kts 311°
2026-04-19 10:30 52.44338 -0.51723 32313 ft 404 kts 311°
2026-04-19 10:31 52.48038 -0.58557 32323 ft 404 kts 311°
2026-04-19 10:31 52.51775 -0.65471 32327 ft 404 kts 311°
2026-04-19 10:32 52.55480 -0.72347 32328 ft 405 kts 311°
2026-04-19 10:32 52.59203 -0.79275 32324 ft 405 kts 311°
2026-04-19 10:33 52.62935 -0.86241 32323 ft 405 kts 311°
2026-04-19 10:33 52.66649 -0.93193 32328 ft 405 kts 311°
2026-04-19 10:34 52.70347 -1.00131 32350 ft 405 kts 311°
2026-04-19 10:34 52.74057 -1.07094 32328 ft 404 kts 312°
2026-04-19 10:35 52.78088 -1.13572 32351 ft 405 kts 316°
2026-04-19 10:35 52.82210 -1.19944 32352 ft 405 kts 316°
2026-04-19 10:36 52.86309 -1.26336 32345 ft 405 kts 316°
2026-04-19 10:36 52.90401 -1.32775 32347 ft 405 kts 315°
2026-04-19 10:37 52.94447 -1.39170 32347 ft 405 kts 315°
2026-04-19 10:37 52.98519 -1.45623 32350 ft 405 kts 315°
2026-04-19 10:38 53.02586 -1.52086 32353 ft 405 kts 315°
2026-04-19 10:38 53.06654 -1.58566 32344 ft 405 kts 316°
2026-04-19 10:39 53.10707 -1.65056 32350 ft 405 kts 315°
2026-04-19 10:39 53.14729 -1.71532 32351 ft 405 kts 315°
2026-04-19 10:40 53.18771 -1.78055 32350 ft 405 kts 315°
2026-04-19 10:40 53.22751 -1.84690 32352 ft 405 kts 310°
2026-04-19 10:41 53.25790 -1.92583 32373 ft 406 kts 298°
2026-04-19 10:41 53.28269 -2.01052 32365 ft 406 kts 298°
2026-04-19 10:42 53.30749 -2.09476 32365 ft 405 kts 298°
2026-04-19 10:42 53.33253 -2.17917 32372 ft 405 kts 298°
2026-04-19 10:43 53.35727 -2.26406 32373 ft 406 kts 295°
2026-04-19 10:43 53.37507 -2.35342 32372 ft 408 kts 290°
2026-04-19 10:44 53.39211 -2.44461 32377 ft 408 kts 290°
2026-04-19 10:44 53.40915 -2.53497 32372 ft 408 kts 290°
2026-04-19 10:45 53.42629 -2.62564 32377 ft 408 kts 291°
2026-04-19 10:45 53.44340 -2.71650 32381 ft 408 kts 291°
2026-04-19 10:46 53.46048 -2.80758 32372 ft 409 kts 291°
2026-04-19 10:46 53.47749 -2.89878 32366 ft 410 kts 291°
2026-04-19 10:47 53.49422 -2.98959 32385 ft 410 kts 290°
2026-04-19 10:47 53.51095 -3.08135 32379 ft 411 kts 290°
2026-04-19 10:48 53.52760 -3.17298 32372 ft 410 kts 291°
2026-04-19 10:48 53.54417 -3.26458 32379 ft 409 kts 291°
2026-04-19 10:49 53.56055 -3.35548 32379 ft 409 kts 291°
2026-04-19 10:49 53.57868 -3.44576 32375 ft 405 kts 298°
2026-04-19 10:50 53.60815 -3.52552 32391 ft 400 kts 308°
2026-04-19 10:50 53.64087 -3.60133 32389 ft 401 kts 308°
2026-04-19 10:51 53.67309 -3.67786 32384 ft 400 kts 308°
2026-04-19 10:51 53.70502 -3.75464 32395 ft 399 kts 308°
2026-04-19 10:52 53.73659 -3.83073 32378 ft 397 kts 308°
2026-04-19 10:52 53.76818 -3.90700 32381 ft 395 kts 308°
2026-04-19 10:53 53.79956 -3.98297 32385 ft 393 kts 308°
2026-04-19 10:53 53.83080 -4.05882 32385 ft 392 kts 308°
2026-04-19 10:54 53.86166 -4.13394 32385 ft 391 kts 308°
2026-04-19 10:54 53.89267 -4.20937 32339 ft 390 kts 309°
2026-04-19 10:55 53.92373 -4.28447 32402 ft 388 kts 309°
2026-04-19 10:55 53.95089 -4.36398 32384 ft 394 kts 299°
2026-04-19 10:56 53.97232 -4.44896 32370 ft 394 kts 298°
2026-04-19 10:56 53.99380 -4.53440 32401 ft 394 kts 298°
2026-04-19 10:57 54.01536 -4.61991 32402 ft 394 kts 298°
2026-04-19 10:57 54.03694 -4.70552 32380 ft 394 kts 298°
2026-04-19 10:58 54.05852 -4.79140 32374 ft 394 kts 298°
2026-04-19 10:58 54.08003 -4.87727 32390 ft 394 kts 298°
2026-04-19 10:59 54.10137 -4.96279 32388 ft 395 kts 298°
2026-04-19 10:59 54.12278 -5.04892 32393 ft 396 kts 298°
2026-04-19 11:00 54.14418 -5.13540 32423 ft 396 kts 298°
2026-04-19 11:00 54.16542 -5.22157 32406 ft 396 kts 298°
2026-04-19 11:01 54.18668 -5.30813 32380 ft 395 kts 298°
2026-04-19 11:01 54.20783 -5.39462 32380 ft 394 kts 298°
2026-04-19 11:02 54.22891 -5.48110 32395 ft 394 kts 298°
2026-04-19 11:02 54.24988 -5.56751 32395 ft 394 kts 298°
2026-04-19 11:03 54.27075 -5.65379 32400 ft 395 kts 298°
2026-04-19 11:03 54.29168 -5.74073 32394 ft 396 kts 298°
2026-04-19 11:04 54.31261 -5.82800 32396 ft 396 kts 298°
2026-04-19 11:04 54.33350 -5.91550 32398 ft 397 kts 297°
2026-04-19 11:05 54.35431 -6.00296 32421 ft 397 kts 298°
2026-04-19 11:05 54.37511 -6.09077 32401 ft 397 kts 297°
2026-04-19 11:06 54.39566 -6.17786 32391 ft 397 kts 297°
2026-04-19 11:06 54.41629 -6.26569 32396 ft 396 kts 297°
2026-04-19 11:07 54.43679 -6.35327 32394 ft 395 kts 297°
2026-04-19 11:07 54.45708 -6.44032 32352 ft 395 kts 297°
2026-04-19 11:08 54.47740 -6.52785 32389 ft 395 kts 297°
2026-04-19 11:08 54.49776 -6.61586 32397 ft 397 kts 297°
2026-04-19 11:09 54.51815 -6.70443 32392 ft 399 kts 297°
2026-04-19 11:09 54.53844 -6.79292 32393 ft 401 kts 297°
2026-04-19 11:10 54.55887 -6.88241 32406 ft 402 kts 297°
2026-04-19 11:10 54.57931 -6.97233 32381 ft 403 kts 297°
2026-04-19 11:11 54.59965 -7.06227 32381 ft 401 kts 296°
2026-04-19 11:11 54.61973 -7.15137 32386 ft 401 kts 296°
2026-04-19 11:12 54.64003 -7.24179 32380 ft 401 kts 296°
2026-04-19 11:12 54.65998 -7.33106 32381 ft 402 kts 296°
2026-04-19 11:13 54.67998 -7.42095 32381 ft 401 kts 296°
2026-04-19 11:13 54.69996 -7.51113 32388 ft 402 kts 296°
2026-04-19 11:14 54.71990 -7.60152 32334 ft 402 kts 295°
2026-04-19 11:14 54.73967 -7.69151 32368 ft 403 kts 295°
2026-04-19 11:15 54.75955 -7.78239 32414 ft 405 kts 296°
2026-04-19 11:15 54.77945 -7.87380 32384 ft 406 kts 295°
2026-04-19 11:16 54.79933 -7.96554 32383 ft 407 kts 295°
2026-04-19 11:16 54.81917 -8.05749 32380 ft 407 kts 295°
2026-04-19 11:17 54.83876 -8.14863 32370 ft 406 kts 295°
2026-04-19 11:17 54.85882 -8.24007 32382 ft 403 kts 299°
2026-04-19 11:18 54.88543 -8.32534 32392 ft 401 kts 303°
2026-04-19 11:18 54.91265 -8.41003 32400 ft 402 kts 303°
2026-04-19 11:19 54.93977 -8.49522 32380 ft 403 kts 302°
2026-04-19 11:19 54.96680 -8.58092 32416 ft 404 kts 302°
2026-04-19 11:20 54.99358 -8.66631 32398 ft 404 kts 302°
2026-04-19 11:20 55.02039 -8.75211 32388 ft 404 kts 302°
2026-04-19 11:21 55.04718 -8.83817 32409 ft 403 kts 302°
2026-04-19 11:22 55.08729 -8.96756 32399 ft 405 kts 302°
2026-04-19 11:22 55.11385 -9.05362 32400 ft 406 kts 302°
2026-04-19 11:23 55.14059 -9.14061 32400 ft 407 kts 301°
2026-04-19 11:23 55.16735 -9.22796 32403 ft 408 kts 301°
2026-04-19 11:24 55.19410 -9.31560 32394 ft 408 kts 301°
2026-04-19 11:24 55.22056 -9.40266 32353 ft 407 kts 301°
2026-04-19 11:25 55.24703 -9.49003 32375 ft 407 kts 301°
2026-04-19 11:25 55.27351 -9.57776 32393 ft 407 kts 301°
2026-04-19 11:26 55.29994 -9.66565 32391 ft 407 kts 301°
2026-04-19 11:26 55.32633 -9.75371 32388 ft 408 kts 301°
2026-04-19 11:27 55.35250 -9.84141 32394 ft 408 kts 301°
2026-04-19 11:27 55.37884 -9.92998 32388 ft 409 kts 301°
2026-04-19 11:28 55.40515 -10.01878 32396 ft 409 kts 301°
2026-04-19 11:28 55.43136 -10.10761 32379 ft 409 kts 300°
2026-04-19 11:29 55.45758 -10.19677 32401 ft 413 kts 300°
2026-04-19 11:29 55.47084 -10.24196 32507 ft 417 kts 300°
2026-04-19 11:29 55.48394 -10.28673 32754 ft 417 kts 300°
2026-04-19 11:29 55.49716 -10.33203 33105 ft 415 kts 300°
2026-04-19 11:30 55.51031 -10.37715 33422 ft 413 kts 300°
2026-04-19 11:30 55.52341 -10.42220 33665 ft 413 kts 300°
2026-04-19 11:30 55.53654 -10.46742 33879 ft 414 kts 300°
2026-04-19 11:30 55.54969 -10.51278 34128 ft 414 kts 300°
2026-04-19 11:31 55.56269 -10.55773 34381 ft 413 kts 300°
2026-04-19 11:31 55.58879 -10.64822 34380 ft 415 kts 300°
2026-04-19 11:32 55.61499 -10.73943 34378 ft 419 kts 299°
2026-04-19 11:32 55.64152 -10.83211 34378 ft 425 kts 299°
2026-04-19 11:33 55.66816 -10.92561 34374 ft 425 kts 298°
2026-04-19 11:33 55.69450 -11.01846 34360 ft 417 kts 298°
2026-04-19 11:34 55.72032 -11.10980 34368 ft 416 kts 298°
2026-04-19 11:34 55.74614 -11.20146 34369 ft 415 kts 298°
2026-04-19 11:35 55.77187 -11.29312 34370 ft 415 kts 298°
2026-04-19 11:35 55.79574 -11.38695 34373 ft 422 kts 293°
2026-04-19 11:36 55.81649 -11.48553 34367 ft 426 kts 292°
2026-04-19 11:36 55.83687 -11.58444 34364 ft 426 kts 292°
2026-04-19 11:37 55.85736 -11.68285 34362 ft 426 kts 292°
2026-04-19 11:37 55.87805 -11.78164 34364 ft 426 kts 292°
2026-04-19 11:38 55.89869 -11.88040 34365 ft 425 kts 292°
2026-04-19 11:38 55.91921 -11.97900 34360 ft 425 kts 292°
2026-04-19 11:39 55.93954 -12.07718 34352 ft 424 kts 292°
2026-04-19 11:39 55.95985 -12.17577 34356 ft 423 kts 292°
2026-04-19 11:40 55.98011 -12.27463 34367 ft 423 kts 292°
2026-04-19 11:40 56.00022 -12.37322 34353 ft 423 kts 292°
2026-04-19 11:41 56.02014 -12.47135 34353 ft 422 kts 292°
2026-04-19 11:41 56.04005 -12.56997 34353 ft 421 kts 292°
2026-04-19 11:42 56.05986 -12.66854 34344 ft 422 kts 291°
2026-04-19 11:42 56.07966 -12.76755 34355 ft 423 kts 291°
2026-04-19 11:43 56.09948 -12.86719 34347 ft 425 kts 291°
2026-04-19 11:43 56.11932 -12.96738 34346 ft 427 kts 291°
2026-04-19 11:44 56.13898 -13.06726 34343 ft 429 kts 291°
2026-04-19 11:44 56.15879 -13.16835 34349 ft 429 kts 291°
2026-04-19 11:45 56.17850 -13.26955 34331 ft 430 kts 290°
2026-04-19 11:45 56.19812 -13.37075 34333 ft 429 kts 290°
2026-04-19 11:46 56.21764 -13.47195 34329 ft 429 kts 290°
2026-04-19 11:46 56.23709 -13.57334 34332 ft 429 kts 290°
2026-04-19 11:47 56.25635 -13.67425 34329 ft 429 kts 290°
2026-04-19 11:47 56.27563 -13.77583 34329 ft 429 kts 290°
2026-04-19 11:48 56.29481 -13.87742 34330 ft 429 kts 290°
2026-04-19 11:48 56.31391 -13.97910 34320 ft 430 kts 289°
2026-04-19 11:49 56.33301 -14.08138 34331 ft 431 kts 289°
2026-04-19 11:49 56.35197 -14.18345 34323 ft 433 kts 288°
2026-04-19 11:50 56.37103 -14.28657 34318 ft 434 kts 288°
2026-04-19 11:50 56.39006 -14.39014 34316 ft 435 kts 288°
2026-04-19 11:51 56.40902 -14.49391 34301 ft 435 kts 288°
2026-04-19 11:51 56.42791 -14.59785 34302 ft 435 kts 287°
2026-04-19 11:52 56.44672 -14.70195 34304 ft 435 kts 287°
2026-04-19 11:52 56.46544 -14.80612 34302 ft 435 kts 287°
2026-04-19 11:53 56.48405 -14.91019 34307 ft 436 kts 287°
2026-04-19 11:53 56.50213 -15.01407 34299 ft 435 kts 283°
2026-04-19 11:54 56.51570 -15.12067 34298 ft 434 kts 281°
2026-04-19 11:54 56.52795 -15.22768 34286 ft 434 kts 280°
2026-04-19 11:55 56.54026 -15.33432 34287 ft 434 kts 280°
2026-04-19 11:55 56.55276 -15.44124 34290 ft 434 kts 280°
2026-04-19 11:56 56.56525 -15.54785 34290 ft 435 kts 280°
2026-04-19 11:56 56.57774 -15.65520 34287 ft 436 kts 280°
2026-04-19 11:57 56.59016 -15.76285 34276 ft 436 kts 280°
2026-04-19 11:57 56.60249 -15.87057 34270 ft 437 kts 279°
2026-04-19 11:58 56.61476 -15.97868 34263 ft 437 kts 279°
2026-04-19 11:58 56.62695 -16.08705 34266 ft 438 kts 279°
2026-04-19 11:59 56.63898 -16.19487 34266 ft 438 kts 279°
2026-04-19 11:59 56.65099 -16.30338 34255 ft 439 kts 279°
2026-04-19 12:00 56.66291 -16.41208 34260 ft 438 kts 279°
2026-04-19 12:00 56.67475 -16.52090 34261 ft 438 kts 278°
2026-04-19 12:01 56.68649 -16.62979 34255 ft 439 kts 277°
2026-04-19 12:01 56.69815 -16.73887 34245 ft 440 kts 278°
2026-04-19 12:02 56.70966 -16.84743 34240 ft 440 kts 277°
2026-04-19 12:02 56.72118 -16.95708 34234 ft 441 kts 278°
2026-04-19 12:03 56.73260 -17.06677 34225 ft 441 kts 278°
2026-04-19 12:03 56.74392 -17.17662 34239 ft 442 kts 277°
2026-04-19 12:04 56.75511 -17.28624 34222 ft 443 kts 277°
2026-04-19 12:04 56.76627 -17.39648 34215 ft 443 kts 277°
2026-04-19 12:05 56.77740 -17.50739 34216 ft 444 kts 277°
2026-04-19 12:05 56.78833 -17.61734 34204 ft 444 kts 277°
2026-04-19 12:06 56.79923 -17.72811 34204 ft 444 kts 277°
2026-04-19 12:06 56.81003 -17.83894 34209 ft 444 kts 276°
2026-04-19 12:07 56.82077 -17.95018 34198 ft 445 kts 276°
2026-04-19 12:07 56.83142 -18.06156 34193 ft 445 kts 276°
2026-04-19 12:08 56.84195 -18.17279 34190 ft 445 kts 275°
2026-04-19 12:08 56.85238 -18.28408 34191 ft 445 kts 275°
2026-04-19 12:09 56.86272 -18.39561 34181 ft 445 kts 275°
2026-04-19 12:09 56.87286 -18.50597 34179 ft 444 kts 275°
2026-04-19 12:10 56.88302 -18.61779 34166 ft 444 kts 275°
2026-04-19 12:10 56.89304 -18.72917 34166 ft 444 kts 275°
2026-04-19 12:11 56.90130 -18.82187 34166 ft 443 kts 275°
2026-04-19 12:12 56.90690 -18.88523 34152 ft 443 kts 275°
2026-04-19 12:12 56.91666 -18.99650 34152 ft 443 kts 275°
2026-04-19 12:13 56.92632 -19.10788 34148 ft 443 kts 275°
2026-04-19 12:13 56.93588 -19.21925 34143 ft 444 kts 274°
2026-04-19 12:14 56.94531 -19.33035 34140 ft 444 kts 274°
2026-04-19 12:14 56.95471 -19.44222 34121 ft 445 kts 274°
2026-04-19 12:15 56.96402 -19.55432 34130 ft 445 kts 273°
2026-04-19 12:15 56.97323 -19.66656 34113 ft 445 kts 273°
2026-04-19 12:16 56.98235 -19.77881 34108 ft 445 kts 273°
2026-04-19 12:16 56.99139 -19.89126 34110 ft 446 kts 272°
2026-04-19 12:17 57.00209 -20.00369 34093 ft 452 kts 280°
2026-04-19 12:17 57.02625 -20.11059 34101 ft 460 kts 289°
2026-04-19 12:18 57.05366 -20.21681 34094 ft 460 kts 290°
2026-04-19 12:18 57.08082 -20.32323 34083 ft 460 kts 289°
2026-04-19 12:19 57.10755 -20.43009 34079 ft 460 kts 289°
2026-04-19 12:19 57.13408 -20.53742 34076 ft 460 kts 289°
2026-04-19 12:20 57.16054 -20.64518 34079 ft 462 kts 288°
2026-04-19 12:20 57.18673 -20.75234 34067 ft 463 kts 288°
2026-04-19 12:21 57.21311 -20.86072 34051 ft 464 kts 288°
2026-04-19 12:21 57.23942 -20.96937 34057 ft 464 kts 288°
2026-04-19 12:22 57.26569 -21.07837 34063 ft 464 kts 288°
2026-04-19 12:22 57.29168 -21.18673 34044 ft 465 kts 288°
2026-04-19 12:23 57.31778 -21.29614 34030 ft 465 kts 287°
2026-04-19 12:23 57.34383 -21.40587 34024 ft 466 kts 287°
2026-04-19 12:24 57.36977 -21.51574 34013 ft 466 kts 287°
2026-04-19 12:24 57.39544 -21.62498 34018 ft 466 kts 287°
2026-04-19 12:25 57.42117 -21.73503 34018 ft 466 kts 287°
2026-04-19 12:25 57.44686 -21.84550 34011 ft 466 kts 286°
2026-04-19 12:26 57.47248 -21.95623 34002 ft 467 kts 286°
2026-04-19 12:26 57.49801 -22.06715 33999 ft 467 kts 286°
2026-04-19 12:27 57.52328 -22.17754 34017 ft 468 kts 285°
2026-04-19 12:27 57.54872 -22.28925 33996 ft 469 kts 285°
2026-04-19 12:28 57.58678 -22.45747 33985 ft 470 kts 285°
2026-04-19 12:28 57.61188 -22.56913 33970 ft 471 kts 284°
2026-04-19 12:29 57.63704 -22.68160 33963 ft 471 kts 284°
2026-04-19 12:29 57.66219 -22.79469 33957 ft 470 kts 284°
2026-04-19 12:30 57.68717 -22.90762 33946 ft 470 kts 284°
2026-04-19 12:30 57.71203 -23.02058 33958 ft 471 kts 283°
2026-04-19 12:31 57.73666 -23.13319 33935 ft 471 kts 283°
2026-04-19 12:31 57.76136 -23.24674 33939 ft 471 kts 283°
2026-04-19 12:32 57.78589 -23.36005 33926 ft 471 kts 283°
2026-04-19 12:32 57.81041 -23.47418 34051 ft 478 kts 283°
2026-04-19 12:33 57.82278 -23.53193 34273 ft 477 kts 283°
2026-04-19 12:33 57.83515 -23.58964 34581 ft 474 kts 283°
2026-04-19 12:33 57.84738 -23.64686 34845 ft 472 kts 283°
2026-04-19 12:33 57.85953 -23.70393 35074 ft 471 kts 283°
2026-04-19 12:34 57.87165 -23.76111 35344 ft 469 kts 283°
2026-04-19 12:34 57.88368 -23.81799 35643 ft 468 kts 283°
2026-04-19 12:34 57.90755 -23.93158 35779 ft 469 kts 283°
2026-04-19 12:35 57.93140 -24.04547 35880 ft 469 kts 283°
2026-04-19 12:35 57.95529 -24.16049 35872 ft 474 kts 283°
2026-04-19 12:36 57.97927 -24.27641 35869 ft 476 kts 283°
2026-04-19 12:36 58.00327 -24.39297 35862 ft 477 kts 282°
2026-04-19 12:37 58.02703 -24.50902 35837 ft 477 kts 282°
2026-04-19 12:37 58.05074 -24.62551 35838 ft 476 kts 282°
2026-04-19 12:38 58.07437 -24.74238 35840 ft 476 kts 282°
2026-04-19 12:38 58.09788 -24.85934 35823 ft 476 kts 282°
2026-04-19 12:39 58.12112 -24.97562 35817 ft 475 kts 282°
2026-04-19 12:39 58.14435 -25.09256 35822 ft 475 kts 282°
2026-04-19 12:40 58.16752 -25.20985 35807 ft 475 kts 281°
2026-04-19 12:40 58.19057 -25.32730 35809 ft 476 kts 281°
2026-04-19 12:41 58.21353 -25.44498 35817 ft 476 kts 281°
2026-04-19 12:41 58.23627 -25.56223 35834 ft 477 kts 281°
2026-04-19 12:42 58.25912 -25.68069 35809 ft 477 kts 281°
2026-04-19 12:42 58.28186 -25.79929 35794 ft 478 kts 281°
2026-04-19 12:43 58.30446 -25.91792 35791 ft 477 kts 281°
2026-04-19 12:43 58.32679 -26.03585 35799 ft 477 kts 281°
2026-04-19 12:44 58.34914 -26.15466 35817 ft 477 kts 281°
2026-04-19 12:44 58.37137 -26.27357 35802 ft 477 kts 281°
2026-04-19 12:45 58.39348 -26.39252 35795 ft 476 kts 281°
2026-04-19 12:45 58.41532 -26.51075 35798 ft 476 kts 281°
2026-04-19 12:46 58.43717 -26.62985 35784 ft 475 kts 280°
2026-04-19 12:46 58.45890 -26.74900 35794 ft 475 kts 280°
2026-04-19 12:47 58.48048 -26.86808 35794 ft 475 kts 280°
2026-04-19 12:47 58.50183 -26.98667 35798 ft 475 kts 280°
2026-04-19 12:48 58.52321 -27.10617 35796 ft 475 kts 280°
2026-04-19 12:48 58.54450 -27.22591 35785 ft 475 kts 280°
2026-04-19 12:49 58.56566 -27.34571 35786 ft 476 kts 280°
2026-04-19 12:49 58.58661 -27.46514 35787 ft 476 kts 280°
2026-04-19 12:50 58.60762 -27.58563 35783 ft 476 kts 280°
2026-04-19 12:50 58.62853 -27.70635 35780 ft 477 kts 280°
2026-04-19 12:51 58.64934 -27.82726 35777 ft 477 kts 280°
2026-04-19 12:51 58.66991 -27.94761 35774 ft 477 kts 280°
2026-04-19 12:52 58.69050 -28.06885 35769 ft 477 kts 279°
2026-04-19 12:52 58.71098 -28.19031 35800 ft 479 kts 280°
2026-04-19 12:53 58.73144 -28.31250 35782 ft 480 kts 280°
2026-04-19 12:53 58.75182 -28.43501 35778 ft 481 kts 280°
2026-04-19 12:54 58.77198 -28.55703 35770 ft 483 kts 280°
2026-04-19 12:54 58.79226 -28.68063 35774 ft 484 kts 280°
2026-04-19 12:55 58.81250 -28.80488 35755 ft 487 kts 280°
2026-04-19 12:55 58.83266 -28.92946 35755 ft 486 kts 280°
2026-04-19 12:56 58.85257 -29.05332 35807 ft 486 kts 280°
2026-04-19 12:56 58.87251 -29.17837 35759 ft 487 kts 280°
2026-04-19 12:57 58.89230 -29.30332 35755 ft 487 kts 280°
2026-04-19 12:57 58.91206 -29.42903 35756 ft 488 kts 280°
2026-04-19 12:58 58.93167 -29.55472 35743 ft 488 kts 280°
2026-04-19 12:58 58.95107 -29.67996 35747 ft 488 kts 280°
2026-04-19 12:59 58.97047 -29.80610 35739 ft 489 kts 280°
2026-04-19 12:59 58.98976 -29.93234 35739 ft 489 kts 279°
2026-04-19 13:00 59.00367 -30.05997 35758 ft 477 kts 268°
2026-04-19 13:00 59.00814 -30.18741 35737 ft 477 kts 266°
2026-04-19 13:01 59.01210 -30.31585 35726 ft 477 kts 267°
2026-04-19 13:01 59.01635 -30.44435 35721 ft 477 kts 267°
2026-04-19 13:02 59.02075 -30.57285 35716 ft 477 kts 267°
2026-04-19 13:02 59.02507 -30.70051 35717 ft 477 kts 267°
2026-04-19 13:03 59.02929 -30.82899 35714 ft 477 kts 268°
2026-04-19 13:03 59.03335 -30.95665 35703 ft 476 kts 267°
2026-04-19 13:04 59.03729 -31.08496 35692 ft 476 kts 267°
2026-04-19 13:04 59.04109 -31.21314 35697 ft 475 kts 267°
2026-04-19 13:05 59.04474 -31.34016 35693 ft 474 kts 267°
2026-04-19 13:05 59.04828 -31.46796 35679 ft 474 kts 267°
2026-04-19 13:06 59.05157 -31.59139 35682 ft 475 kts 268°
2026-04-19 13:06 59.05486 -31.71891 35673 ft 475 kts 268°
2026-04-19 13:07 59.05804 -31.84714 35662 ft 475 kts 268°
2026-04-19 13:07 59.06109 -31.97549 35649 ft 476 kts 268°
2026-04-19 13:08 59.06402 -32.10395 35652 ft 476 kts 267°
2026-04-19 13:08 59.06682 -32.23236 35651 ft 476 kts 267°
2026-04-19 13:09 59.06949 -32.36031 35642 ft 478 kts 268°
2026-04-19 13:09 59.07205 -32.48939 35638 ft 478 kts 268°
2026-04-19 13:10 59.07448 -32.61849 35621 ft 478 kts 268°
2026-04-19 13:10 59.07678 -32.74763 35607 ft 478 kts 268°
2026-04-19 13:11 59.07894 -32.87579 35608 ft 478 kts 268°
2026-04-19 13:11 59.08100 -33.00548 35599 ft 478 kts 268°
2026-04-19 13:12 59.08291 -33.13448 35594 ft 478 kts 268°
2026-04-19 13:12 59.08469 -33.26371 35572 ft 477 kts 267°
2026-04-19 13:13 59.08637 -33.39260 35573 ft 476 kts 268°
2026-04-19 13:13 59.08790 -33.52034 35563 ft 475 kts 268°
2026-04-19 13:14 59.08929 -33.64867 35550 ft 474 kts 267°
2026-04-19 13:14 59.09056 -33.77687 35542 ft 474 kts 266°
2026-04-19 13:15 59.09171 -33.90518 35551 ft 474 kts 268°
2026-04-19 13:15 59.09268 -34.03262 35542 ft 474 kts 268°
2026-04-19 13:16 59.09359 -34.16092 35516 ft 475 kts 268°
2026-04-19 13:16 59.09437 -34.28933 35525 ft 475 kts 266°
2026-04-19 13:17 59.09497 -34.41772 35520 ft 475 kts 268°
2026-04-19 13:17 59.09547 -34.54559 35489 ft 476 kts 266°
2026-04-19 13:18 59.09587 -34.67444 35504 ft 477 kts 268°
2026-04-19 13:18 59.09613 -34.80365 35473 ft 478 kts 268°
2026-04-19 13:19 59.09625 -34.93303 35469 ft 479 kts 269°
2026-04-19 13:19 59.09625 -35.06161 35469 ft 478 kts 267°
2026-04-19 13:20 59.09617 -35.19090 35463 ft 478 kts 268°
2026-04-19 13:20 59.09595 -35.32022 35455 ft 478 kts 266°
2026-04-19 13:21 59.09555 -35.44957 35453 ft 477 kts 267°
2026-04-19 13:21 59.09504 -35.57766 35432 ft 476 kts 267°
2026-04-19 13:22 59.09438 -35.70612 35408 ft 474 kts 268°
2026-04-19 13:22 59.09361 -35.83422 35401 ft 473 kts 268°
2026-04-19 13:23 59.09276 -35.96196 35407 ft 472 kts 267°
2026-04-19 13:23 59.09175 -36.08839 35379 ft 471 kts 267°
2026-04-19 13:24 59.09063 -36.21574 35405 ft 470 kts 268°
2026-04-19 13:24 59.08937 -36.34304 35370 ft 470 kts 268°
2026-04-19 13:25 59.08800 -36.46909 35371 ft 469 kts 268°
2026-04-19 13:25 59.08651 -36.59569 35366 ft 468 kts 268°
2026-04-19 13:26 59.08490 -36.72201 35355 ft 467 kts 268°
2026-04-19 13:26 59.08317 -36.84804 35338 ft 466 kts 268°
2026-04-19 13:27 59.08132 -36.97315 35338 ft 466 kts 269°
2026-04-19 13:27 59.07935 -37.09887 35332 ft 465 kts 269°
2026-04-19 13:28 59.07726 -37.22438 35331 ft 464 kts 269°
2026-04-19 13:28 59.07507 -37.34952 35314 ft 463 kts 269°
2026-04-19 13:29 59.07276 -37.47471 35316 ft 463 kts 269°
2026-04-19 13:29 59.07032 -37.59864 35301 ft 462 kts 268°
2026-04-19 13:30 59.06777 -37.72340 35309 ft 462 kts 268°
2026-04-19 13:31 59.06375 -37.91002 35291 ft 459 kts 269°
2026-04-19 13:31 59.06093 -38.03298 35296 ft 458 kts 270°
2026-04-19 13:32 59.05797 -38.15638 35280 ft 457 kts 269°
2026-04-19 13:32 59.05490 -38.27926 35286 ft 455 kts 270°
2026-04-19 13:33 59.05178 -38.40112 35273 ft 455 kts 268°
2026-04-19 13:33 59.04852 -38.52389 35263 ft 454 kts 269°
2026-04-19 13:34 59.04512 -38.64626 35270 ft 454 kts 269°
2026-04-19 13:34 59.04163 -38.76848 35271 ft 453 kts 269°
2026-04-19 13:35 59.03801 -38.89086 35258 ft 453 kts 269°
2026-04-19 13:35 59.03430 -39.01283 35270 ft 453 kts 269°
2026-04-19 13:36 59.03048 -39.13436 35258 ft 453 kts 269°
2026-04-19 13:36 59.02653 -39.25650 35273 ft 453 kts 269°
2026-04-19 13:37 59.02248 -39.37818 35259 ft 451 kts 270°
2026-04-19 13:37 59.01832 -39.49934 35260 ft 448 kts 269°
2026-04-19 13:38 59.01412 -39.61869 35255 ft 445 kts 269°
2026-04-19 13:38 59.00981 -39.73817 35263 ft 443 kts 269°
2026-04-19 13:39 59.00543 -39.85710 35279 ft 441 kts 269°
2026-04-19 13:39 59.00096 -39.97545 35280 ft 440 kts 270°
2026-04-19 13:40 59.00216 -40.09253 35266 ft 435 kts 278°
2026-04-19 13:40 59.00705 -40.20931 35276 ft 434 kts 279°
2026-04-19 13:41 59.01188 -40.32599 35287 ft 434 kts 279°
2026-04-19 13:41 59.01627 -40.44261 35303 ft 434 kts 278°
2026-04-19 13:42 59.02035 -40.55895 35304 ft 435 kts 278°
2026-04-19 13:42 59.02430 -40.67580 35310 ft 436 kts 278°
2026-04-19 13:43 59.02817 -40.79360 35318 ft 436 kts 278°
2026-04-19 13:43 59.03192 -40.91114 35323 ft 437 kts 278°
2026-04-19 13:44 59.03557 -41.02883 35325 ft 435 kts 279°
2026-04-19 13:44 59.03908 -41.14534 35357 ft 435 kts 278°
2026-04-19 13:45 59.04252 -41.26259 35362 ft 434 kts 278°
2026-04-19 13:45 59.04584 -41.37957 35377 ft 434 kts 278°
2026-04-19 13:46 59.04905 -41.49649 35408 ft 433 kts 278°
2026-04-19 13:46 59.05213 -41.61257 35410 ft 433 kts 278°
2026-04-19 13:47 59.05512 -41.72925 35414 ft 432 kts 278°
2026-04-19 13:47 59.05800 -41.84564 35407 ft 432 kts 278°
2026-04-19 13:48 59.06076 -41.96192 35435 ft 428 kts 279°
2026-04-19 13:48 59.06338 -42.07642 35453 ft 426 kts 279°
2026-04-19 13:49 59.06591 -42.19108 35456 ft 424 kts 279°
2026-04-19 13:49 59.06833 -42.30519 35458 ft 422 kts 279°
2026-04-19 13:50 59.07065 -42.41916 35475 ft 421 kts 279°
2026-04-19 13:50 59.07286 -42.53256 35476 ft 420 kts 279°
2026-04-19 13:51 59.07496 -42.64521 35500 ft 420 kts 279°
2026-04-19 13:51 59.07697 -42.75859 35506 ft 420 kts 279°
2026-04-19 13:52 59.07889 -42.87235 35507 ft 420 kts 279°
2026-04-19 13:52 59.08070 -42.98596 35533 ft 420 kts 279°
2026-04-19 13:53 59.08241 -43.09958 35553 ft 420 kts 279°
2026-04-19 13:53 59.08401 -43.21240 35545 ft 421 kts 279°
2026-04-19 13:54 59.08553 -43.32624 35559 ft 421 kts 279°
2026-04-19 13:54 59.08694 -43.44000 35558 ft 421 kts 279°
2026-04-19 13:55 59.08825 -43.55309 35566 ft 421 kts 279°
2026-04-19 13:55 59.08947 -43.66681 35517 ft 421 kts 279°
2026-04-19 13:56 59.09046 -43.77710 35557 ft 403 kts 279°
2026-04-19 13:56 59.09143 -43.88653 35575 ft 400 kts 279°
2026-04-19 13:57 59.09236 -43.99438 35583 ft 398 kts 279°
2026-04-19 13:57 59.09318 -44.10149 35599 ft 399 kts 279°
2026-04-19 13:58 59.09391 -44.20949 35606 ft 401 kts 279°
2026-04-19 13:58 59.09454 -44.31823 35607 ft 403 kts 279°
2026-04-19 13:59 59.09507 -44.42773 35614 ft 406 kts 279°
2026-04-19 13:59 59.09551 -44.53791 35605 ft 408 kts 278°
2026-04-19 14:00 59.09579 -44.64647 35599 ft 398 kts 278°
2026-04-19 14:00 59.09598 -44.75285 35612 ft 391 kts 279°
2026-04-19 14:01 59.09617 -44.85869 35625 ft 391 kts 279°
2026-04-19 14:01 59.09627 -44.96426 35625 ft 390 kts 278°
2026-04-19 14:02 59.09628 -45.06914 35631 ft 391 kts 278°
2026-04-19 14:02 59.09619 -45.17507 35645 ft 392 kts 278°
2026-04-19 14:03 59.09601 -45.28122 35641 ft 394 kts 278°
2026-04-19 14:03 59.09574 -45.38791 35646 ft 395 kts 278°
2026-04-19 14:04 59.09537 -45.49399 35618 ft 392 kts 278°
2026-04-19 14:04 59.09485 -45.59819 35640 ft 381 kts 278°
2026-04-19 14:05 59.09443 -45.68355 35651 ft 379 kts 278°
2026-04-19 14:05 59.09378 -45.80314 35659 ft 378 kts 278°
2026-04-19 14:06 59.09315 -45.90347 35666 ft 378 kts 278°
2026-04-19 14:06 59.09241 -46.00646 35662 ft 379 kts 278°
2026-04-19 14:07 59.09158 -46.10905 35668 ft 380 kts 277°
2026-04-19 14:07 59.09066 -46.21217 35682 ft 382 kts 277°
2026-04-19 14:08 59.08966 -46.31540 35683 ft 383 kts 277°
2026-04-19 14:08 59.08913 -46.36732 35579 ft 383 kts 277°
2026-04-19 14:08 59.08857 -46.41829 35646 ft 381 kts 277°
2026-04-19 14:09 59.08739 -46.52108 35670 ft 380 kts 277°
2026-04-19 14:09 59.08615 -46.62363 35696 ft 379 kts 277°
2026-04-19 14:10 59.08483 -46.72609 35704 ft 379 kts 277°
2026-04-19 14:10 59.08344 -46.82781 35703 ft 378 kts 277°
2026-04-19 14:11 59.08197 -46.92976 35714 ft 377 kts 277°
2026-04-19 14:11 59.08042 -47.03161 35718 ft 377 kts 277°
2026-04-19 14:12 59.07878 -47.13349 35719 ft 376 kts 276°
2026-04-19 14:12 59.07708 -47.23513 35720 ft 376 kts 276°
2026-04-19 14:13 59.07530 -47.33583 35725 ft 375 kts 276°
2026-04-19 14:13 59.07344 -47.43712 35726 ft 374 kts 276°
2026-04-19 14:14 59.07151 -47.53803 35731 ft 374 kts 276°
2026-04-19 14:14 59.06950 -47.63904 35739 ft 374 kts 276°
2026-04-19 14:15 59.06743 -47.73929 35737 ft 374 kts 276°
2026-04-19 14:15 59.06525 -47.84036 35740 ft 374 kts 276°
2026-04-19 14:16 59.06301 -47.94123 35740 ft 374 kts 276°
2026-04-19 14:16 59.06069 -48.04218 35748 ft 374 kts 276°
2026-04-19 14:17 59.05828 -48.14326 35726 ft 374 kts 276°
2026-04-19 14:17 59.05580 -48.24342 35746 ft 372 kts 275°
2026-04-19 14:18 59.05325 -48.34392 35751 ft 372 kts 275°
2026-04-19 14:18 59.05063 -48.44446 35764 ft 373 kts 275°
2026-04-19 14:19 59.04793 -48.54489 35759 ft 373 kts 275°
2026-04-19 14:19 59.04516 -48.64482 35762 ft 373 kts 275°
2026-04-19 14:20 59.04229 -48.74556 35773 ft 373 kts 275°
2026-04-19 14:20 59.03935 -48.84604 35773 ft 373 kts 275°
2026-04-19 14:21 59.03633 -48.94674 35773 ft 373 kts 275°
2026-04-19 14:21 59.03324 -49.04677 35748 ft 374 kts 274°
2026-04-19 14:22 59.03005 -49.14718 35766 ft 372 kts 274°
2026-04-19 14:22 59.02682 -49.24736 35779 ft 372 kts 274°
2026-04-19 14:23 59.02350 -49.34773 35778 ft 372 kts 274°
2026-04-19 14:23 59.02012 -49.44742 35788 ft 373 kts 274°
2026-04-19 14:24 59.01664 -49.54775 35794 ft 373 kts 274°
2026-04-19 14:24 59.01308 -49.64819 35788 ft 373 kts 274°
2026-04-19 14:25 59.00944 -49.74869 35784 ft 373 kts 274°
2026-04-19 14:25 59.00571 -49.84933 35789 ft 374 kts 274°
2026-04-19 14:26 59.00196 -49.94914 35782 ft 374 kts 273°
2026-04-19 14:26 58.99816 -50.04917 35777 ft 371 kts 272°
2026-04-19 14:27 58.99459 -50.14862 35786 ft 369 kts 272°
2026-04-19 14:27 58.99101 -50.24779 35789 ft 368 kts 272°
2026-04-19 14:28 58.98738 -50.34587 35790 ft 367 kts 272°
2026-04-19 14:28 58.98364 -50.44447 35796 ft 366 kts 272°
2026-04-19 14:29 58.97982 -50.54302 35802 ft 366 kts 272°
2026-04-19 14:29 58.97593 -50.64144 35801 ft 366 kts 272°
2026-04-19 14:30 58.97199 -50.73926 35794 ft 367 kts 272°
2026-04-19 14:30 58.96794 -50.83770 35796 ft 367 kts 272°
2026-04-19 14:31 58.96380 -50.93626 35790 ft 367 kts 271°
2026-04-19 14:31 58.95960 -51.03485 35797 ft 367 kts 270°
2026-04-19 14:32 58.95532 -51.13373 35796 ft 369 kts 270°
2026-04-19 14:32 58.95098 -51.23210 35795 ft 370 kts 270°
2026-04-19 14:33 58.94651 -51.33151 35795 ft 371 kts 270°
2026-04-19 14:33 58.94196 -51.43100 35792 ft 371 kts 270°
2026-04-19 14:34 58.93732 -51.53053 35787 ft 371 kts 270°
2026-04-19 14:34 58.93262 -51.63003 35789 ft 371 kts 270°
2026-04-19 14:35 58.92544 -51.77847 35787 ft 371 kts 269°
2026-04-19 14:35 58.92056 -51.87760 35783 ft 370 kts 269°
2026-04-19 14:36 58.91560 -51.97683 35782 ft 370 kts 269°
2026-04-19 14:36 58.91061 -52.07503 35781 ft 369 kts 269°
2026-04-19 14:37 58.90552 -52.17381 35781 ft 369 kts 269°
2026-04-19 14:37 58.90035 -52.27261 35780 ft 369 kts 269°
2026-04-19 14:38 58.89511 -52.37123 35776 ft 369 kts 269°
2026-04-19 14:38 58.88983 -52.46924 35771 ft 368 kts 269°
2026-04-19 14:39 58.88444 -52.56771 35773 ft 368 kts 269°
2026-04-19 14:39 58.87898 -52.66622 35729 ft 368 kts 267°
2026-04-19 14:40 58.87347 -52.76415 35755 ft 366 kts 267°
2026-04-19 14:40 58.86794 -52.86118 35749 ft 365 kts 267°
2026-04-19 14:41 58.86233 -52.95832 35753 ft 364 kts 267°
2026-04-19 14:41 58.85664 -53.05552 35757 ft 364 kts 267°
2026-04-19 14:42 58.85088 -53.15262 35753 ft 364 kts 267°
2026-04-19 14:42 58.84506 -53.24955 35746 ft 364 kts 267°
2026-04-19 14:43 58.84013 -53.33064 35742 ft 364 kts 267°
2026-04-19 14:43 58.83421 -53.42700 35745 ft 364 kts 267°
2026-04-19 14:44 58.82816 -53.52400 35747 ft 364 kts 266°
2026-04-19 14:44 58.82204 -53.62102 35737 ft 364 kts 265°
2026-04-19 14:45 58.81587 -53.71776 35730 ft 363 kts 265°
2026-04-19 14:45 58.80968 -53.81374 35723 ft 363 kts 265°
2026-04-19 14:46 58.80337 -53.91032 35724 ft 363 kts 265°
2026-04-19 14:46 58.79699 -54.00689 35721 ft 363 kts 265°
2026-04-19 14:47 58.79163 -54.08713 35723 ft 363 kts 265°
2026-04-19 14:47 58.78403 -54.19945 35704 ft 363 kts 265°
2026-04-19 14:48 58.77743 -54.29591 35710 ft 363 kts 265°
2026-04-19 14:48 58.77189 -54.37612 35726 ft 363 kts 264°
2026-04-19 14:49 58.76516 -54.47245 35693 ft 363 kts 263°
2026-04-19 14:49 58.75726 -54.58418 35693 ft 361 kts 263°
2026-04-19 14:50 58.75154 -54.66426 35699 ft 360 kts 263°
2026-04-19 14:50 58.74470 -54.75919 35687 ft 360 kts 263°
2026-04-19 14:51 58.73775 -54.85453 35699 ft 360 kts 263°
2026-04-19 14:51 58.73072 -54.94983 35671 ft 360 kts 263°
2026-04-19 14:52 58.72365 -55.04492 35668 ft 359 kts 263°
2026-04-19 14:52 58.71648 -55.14021 35668 ft 360 kts 263°
2026-04-19 14:53 58.70930 -55.23476 35686 ft 360 kts 262°
2026-04-19 14:53 58.70198 -55.32999 35633 ft 360 kts 262°
2026-04-19 14:54 58.69460 -55.42515 35642 ft 360 kts 262°
2026-04-19 14:54 58.68718 -55.52006 35653 ft 359 kts 262°
2026-04-19 14:55 58.67970 -55.61463 35653 ft 360 kts 262°
2026-04-19 14:55 58.67212 -55.70960 35638 ft 360 kts 261°
2026-04-19 14:56 58.66446 -55.80473 35653 ft 361 kts 261°
2026-04-19 14:56 58.65671 -55.89997 35621 ft 361 kts 261°
2026-04-19 14:57 58.64894 -55.99453 35620 ft 360 kts 261°
2026-04-19 14:57 58.64108 -56.08938 35621 ft 360 kts 261°